User: anonymous   Login
Location: Unspecified
(0.0000°N, 0.0000°E)
Time: 06:59:33
(UTC+00:00)
Language:

Vela 6A - Orbit

View from above orbital plane
View from above orbital plane
View from above satellite
View from above satellite

Ground track
Ground track

The orbit data is extracted from the following two-line orbital elements,

1  4366U 70027A   17165.07225271 +.00000839 +00000-0 +00000-0 0  9991
2  4366 044.0650 200.7619 6724906 070.1805 000.1925 00.21488854030651
Epoch (UTC): 14 June 2017 01:44:02
Eccentricity: 0.6724906
inclination: 44.0650°
perigee height: 32182 km
apogee height: 190540 km
right ascension of ascending node: 200.7619°
argument of perigee: 70.1805°
revolutions per day: 0.21488854
mean anomaly at epoch: 0.1925°
orbit number at epoch: 3065

The dashed part of the orbit path shows where the satellite is in the earth's shadow,  

DLR